San Diego Montgomery, CA

3:06 PM PDT on June 22, 2018 (GMT -0700)
Montgomery

Weather History for KMYF - September, 2014

Change the Weather History Date:

Friday, September 5, 2014

  Actual Average Record
Temperature  
Mean Temperature 73 °F 73 °F  
Max Temperature 80 °F 81 °F 99 °F (2004)
Min Temperature 66 °F 64 °F 59 °F (2010)
Degree Days  
Heating Degree Days 0 0  
Month to date heating degree days 0  
Since 1 July heating degree days 1  
Cooling Degree Days 8 8  
Month to date cooling degree days 40  
Year to date cooling degree days 598  
Growing Degree Days 23 (Base 50)    
Moisture  
Dew Point 63 °F    
Average Humidity 74    
Maximum Humidity 88    
Minimum Humidity 54    
Precipitation  
Precipitation 0.00 in 0.01 in 0.04 in (2011)
Month to date precipitation 0.02  
Year to date precipitation 8.48  
Sea Level Pressure  
Sea Level Pressure 29.85 in    
Wind  
Wind Speed 4 mph (NW)    
Max Wind Speed 12 mph    
Max Gust Speed -    
Visibility 10 miles    
Events      
T = Trace of Precipitation, MM = Missing Value Source: NWS Daily Summary

Daily Weather History Graph

Daily Weather History Graph

Search for Another Location

Airport or City:

Astronomy

Sep. 05, 2014 Rise Set
Actual Time 6:25 AM PDT 7:07 PM PDT
Civil Twilight 6:00 AM PDT 7:32 PM PDT
Nautical Twilight 5:31 AM PDT 8:02 PM PDT
Astronomical Twilight 5:01 AM PDT 8:32 PM PDT
Moon 4:33 PM PDT (9/5) 2:33 AM PDT (9/5)
Length of Visible Light 13h 32m
Length of Day
12h 42m
Waxing Gibbous, 85% of the Moon is Illuminated
Sep 5
Waxing Gibbous
Sep 8
Full
Sep 15
Last Quarter
Sep 23
New
Oct 1
First Quarter

Hourly Weather History & Observations

Time (PDT) Temp. Heat Index Dew Point Humidity Pressure Visibility Wind Dir Wind Speed Gust Speed Precip Events Conditions
12:53 AM 66.9 °F - 62.1 °F 84% 29.80 in 10.0 mi Calm Calm - N/A   Clear
1:53 AM 66.0 °F - 61.0 °F 84% 29.81 in 10.0 mi Calm Calm - N/A   Clear
2:25 AM 66.2 °F - 62.6 °F 88% 29.82 in 10.0 mi Calm Calm - N/A   Scattered Clouds
2:35 AM 66.2 °F - 62.6 °F 88% 29.83 in 10.0 mi Calm Calm - N/A   Mostly Cloudy
2:53 AM 68.0 °F - 63.0 °F 84% 29.82 in 10.0 mi North 4.6 mph - N/A   Overcast
3:46 AM 68.0 °F - 62.6 °F 83% 29.84 in 10.0 mi North 3.5 mph - N/A   Overcast
3:53 AM 69.1 °F - 63.0 °F 81% 29.83 in 10.0 mi North 4.6 mph - N/A   Overcast
4:53 AM 69.1 °F - 63.0 °F 81% 29.83 in 10.0 mi North 4.6 mph - N/A   Overcast
5:53 AM 69.1 °F - 63.0 °F 81% 29.84 in 10.0 mi NNW 4.6 mph - N/A   Overcast
6:53 AM 69.1 °F - 62.1 °F 78% 29.85 in 10.0 mi North 4.6 mph - N/A   Overcast
7:53 AM 69.1 °F - 62.1 °F 78% 29.85 in 10.0 mi NW 3.5 mph - N/A   Overcast
9:53 AM 73.9 °F - 61.0 °F 64% 29.87 in 10.0 mi Calm Calm - N/A   Scattered Clouds
10:53 AM 77.0 °F - 62.1 °F 60% 29.87 in 10.0 mi WNW 6.9 mph - N/A   Clear
11:53 AM 79.0 °F - 62.1 °F 56% 29.86 in 10.0 mi NW 11.5 mph - N/A   Clear
12:53 PM 80.1 °F 81.2 °F 62.1 °F 54% 29.85 in 10.0 mi WNW 6.9 mph - N/A   Clear
1:53 PM 80.1 °F 81.5 °F 63.0 °F 56% 29.84 in 10.0 mi West 10.4 mph - N/A   Clear
3:53 PM 78.1 °F - 63.0 °F 60% 29.83 in 10.0 mi WNW 9.2 mph - N/A   Clear
4:53 PM 78.1 °F - 63.0 °F 60% 29.83 in 10.0 mi West 9.2 mph - N/A   Clear
5:53 PM 75.0 °F - 63.0 °F 66% 29.83 in 10.0 mi WNW 6.9 mph - N/A   Clear
6:53 PM 73.0 °F - 63.0 °F 71% 29.83 in 10.0 mi WNW 8.1 mph - N/A   Clear
7:53 PM 71.1 °F - 64.0 °F 78% 29.85 in 10.0 mi WNW 6.9 mph - N/A   Partly Cloudy
8:53 PM 70.0 °F - 64.0 °F 81% 29.87 in 10.0 mi NW 5.8 mph - N/A   Clear
9:53 PM 70.0 °F - 64.0 °F 81% 29.88 in 10.0 mi NW 5.8 mph - N/A   Clear
10:53 PM 70.0 °F - 64.0 °F 81% 29.90 in 10.0 mi West 4.6 mph - N/A   Clear
11:53 PM 70.0 °F - 64.9 °F 84% 29.90 in 10.0 mi NNW 4.6 mph - N/A   Clear